LANDSAT 8

Last updated on Fri Oct 04 2024 00:02:25 GMT+0000 (Coordinated Universal Time)

1 39084U 13008A 24277.49729912 .00002376 00000+0 53743-3 0 9993 2 39084 98.2190 345.7458 0001299 93.9962 266.1385 14.57103626607368
UTC large
Height (km)
Speed (km/s)
/
Latitude / Longitude
Inclination (degrees)
Orbital Period (minutes)
Azimuth
Elevation
Range (km)
Doppler Factor

Next 0 passes for location: London (51.5072 / 0.1276)

Sorry there are no passes over London.